Location: Arboyeti
(42.1122°N, 44.6017°E)
Time: 03:09:59
(UTC+00:00)

X-37B - Pass Details

Date: 01 October 2021
Orbit: 385 x 389 km, 45.0° (Epoch: 17 October)

Event Time Altitude Azimuth Distance (km) Brightness Sun altitude
Exits shadow 01:11:28 56° 19° (NNE) 465 1.0 -20.5°
Drops below altitude 10° 01:14:31 10° 91° (E) 1,412 4.5 -20.0°
Sets 01:16:37 0° 95° (E) 2,266 5.8 -19.6°
